Theta_e
337 339 339 342 343 347 349 350 349 349 350 348 348 346 346 347 348 350 348 349 350 352 349 348 349 347 345 341 340 336 329 329 333 325 328 331 331 328 326 323 329 334 339
335 336 338 341 342 345 348 349 349 349 349 349 350 348 348 348 349 349 350 350 350 351 350 348 347 347 346 341 336 332 327 330 330 323 324 322 330 332 324 322 327 327 333
332 334 337 339 342 344 346 346 349 350 350 350 351 348 348 347 346 347 348 350 353 353 351 350 348 346 344 339 335 332 329 325 330 328 325 321 319 326 330 321 323 322 325
332 334 337 337 340 344 346 347 348 352 352 353 350 348 346 344 347 346 348 352 355 353 351 350 347 344 341 337 335 334 330 328 325 331 331 327 326 320 321 327 322 321 321
331 331 336 338 340 343 346 346 346 353 353 353 351 349 346 347 344 346 347 348 353 354 351 350 348 342 339 337 334 332 329 332 326 328 328 327 325 320 320 317 320 324 321
330 332 336 338 339 342 345 347 346 347 352 353 351 350 347 345 343 342 343 347 352 352 352 351 350 341 336 337 334 332 329 333 333 329 328 326 322 321 320 316 317 318 322
330 331 332 335 337 339 343 347 346 345 349 352 351 350 349 347 345 342 345 348 349 347 350 350 348 341 337 336 333 333 331 331 330 326 328 328 324 323 321 317 315 315 319
329 331 332 335 336 338 343 346 347 346 349 350 351 352 350 350 348 343 348 349 350 351 350 351 347 340 338 336 334 332 332 332 330 331 328 327 328 325 322 319 317 313 316
326 329 333 335 337 338 342 345 348 348 350 351 350 352 352 351 349 347 349 350 349 350 349 350 345 341 339 338 336 332 331 334 330 328 327 328 326 328 327 326 321 316 311
326 329 331 335 338 339 343 347 350 349 352 353 353 351 351 353 350 348 349 349 348 349 349 348 346 342 338 339 337 333 331 332 332 330 327 328 327 326 328 325 324 321 318
328 328 330 335 338 340 344 347 349 349 351 353 353 354 353 351 352 350 350 351 348 346 348 347 346 343 339 338 335 333 333 330 330 332 330 329 328 326 326 326 325 323 322
327 329 330 333 336 339 343 345 350 350 351 354 354 354 354 354 352 350 351 350 349 347 347 347 348 346 342 337 337 332 333 332 329 328 328 327 331 331 327 328 327 326 324
323 325 330 332 335 339 341 345 349 351 353 354 354 355 354 354 352 351 351 351 350 346 347 346 347 346 343 339 338 335 333 331 332 331 328 328 330 327 326 328 326 327 328
323 325 329 332 336 339 341 345 347 353 354 355 355 354 355 355 355 354 352 351 352 347 346 346 346 347 345 341 340 337 334 333 332 332 332 331 331 331 330 329 330 330 327
324 325 329 332 336 339 341 344 348 351 354 354 355 355 356 357 357 355 354 352 354 349 347 344 345 344 344 343 339 338 335 333 332 332 332 332 335 335 332 332 328 327 328
324 327 330 333 336 339 340 342 346 352 354 354 354 356 357 356 356 357 356 353 352 352 347 344 343 343 345 336 335 338 336 335 332 330 331 333 338 335 334 332 331 331 329
325 328 331 334 336 339 341 341 345 351 353 354 356 356 355 355 355 356 356 355 352 350 349 345 344 343 343 331 331 335 337 334 333 331 331 333 336 334 334 330 329 328 329
319 329 332 333 337 340 342 343 344 347 351 352 354 356 355 354 355 355 355 354 355 351 350 347 346 344 343 328 327 332 337 335 333 333 333 335 334 332 330 329 329 327 327
318 319 328 333 333 337 341 342 343 345 347 349 352 354 355 353 354 353 354 354 354 353 352 349 345 344 343 323 323 329 335 335 332 332 334 335 333 326 324 329 324 324 325
315 318 319 328 339 336 340 340 341 343 344 346 349 353 354 353 352 353 353 355 355 354 349 346 344 337 339 319 319 325 330 330 330 332 333 326 328 322 320 327 323 322 323
320 317 314 319 331 341 338 337 339 341 345 347 348 350 353 352 353 354 355 355 352 350 347 342 337 336 336 331 319 317 330 328 328 328 329 330 321 316 315 317 321 321 318
325 336 318 319 325 335 339 337 337 342 344 345 345 345 350 351 355 353 352 351 347 345 343 339 336 335 335 324 315 314 320 323 328 328 327 323 313 309 314 318 317 311 312
338 343 341 335 342 335 341 337 339 340 340 341 345 348 351 354 353 350 348 344 343 341 337 336 332 331 332 327 315 313 314 320 329 329 321 310 307 309 313 312 311 311 308
328 329 334 342 344 345 342 340 340 343 345 350 353 352 349 347 347 345 345 341 339 336 335 333 333 332 331 327 321 317 316 315 320 319 315 314 314 312 312 311 311 309 307
324 324 322 321 321 346 351 353 353 355 353 350 349 347 344 344 332 319 331 337 331 334 334 333 333 332 330 327 319 317 320 321 316 313 312 310 309 309 308 308 309 307 307
323 320 319 318 321 322 334 353 354 352 348 344 344 342 331 327 324 321 314 303 302 303 309 314 326 316 316 307 304 302 302 303 306 313 310 309 309 309 309 309 309 309 312
Wind_Speed
21 23 17 18 18 18 19 19 16 14 11 6 6 3 4 3 2 4 7 7 6 7 6 4 4 4 5 5 4 3 1 1 1 3 3 2 2 3 3 3 4 5 4
19 17 20 20 21 20 20 19 18 16 12 9 8 4 4 3 3 4 5 6 7 7 6 6 5 6 4 5 5 3 1 0 1 3 2 1 3 2 2 1 4 5 3
23 21 20 19 21 21 22 21 20 19 16 13 7 2 2 1 1 3 3 5 7 7 6 6 5 6 5 5 4 5 5 3 1 2 4 2 3 1 1 0 0 4 3
22 22 24 23 21 22 21 21 18 19 17 16 13 13 8 8 7 5 4 5 9 8 8 7 6 6 4 6 5 4 3 3 2 1 1 1 4 4 0 2 2 2 2
24 24 25 27 25 22 20 20 20 18 17 17 16 12 10 9 4 4 6 6 7 9 8 8 7 6 5 6 6 5 4 2 3 2 1 2 3 3 3 2 2 2 3
24 24 25 24 22 20 19 19 20 19 18 18 16 17 16 11 7 4 4 5 5 6 9 8 8 6 6 6 5 5 6 4 3 2 2 3 3 3 3 2 2 3 3
24 23 23 22 21 23 21 18 20 20 18 18 18 18 16 14 11 7 6 7 6 4 8 10 8 6 6 7 6 6 5 6 4 5 3 2 2 3 3 3 1 2 2
24 26 26 26 25 23 22 21 21 20 19 18 18 16 16 10 8 8 6 8 9 10 12 11 9 8 8 8 7 5 4 5 4 6 4 3 3 3 2 4 4 1 2
26 28 25 26 25 23 24 24 22 21 21 21 18 16 15 14 10 9 10 8 10 9 10 11 11 10 9 9 8 5 6 5 5 5 4 3 3 2 3 3 3 5 3
27 25 24 26 24 24 22 24 24 25 24 22 19 16 17 14 10 9 11 9 9 10 10 11 12 12 11 10 9 6 5 6 4 4 5 4 2 3 2 3 3 2 4
25 25 22 22 23 21 21 22 22 23 20 20 19 17 15 15 12 11 11 11 11 12 12 13 13 14 12 10 9 7 7 7 7 5 6 7 4 3 3 1 2 2 3
20 21 22 20 19 22 21 23 21 22 22 21 19 18 15 15 16 15 13 10 12 12 14 14 14 14 13 11 11 10 9 8 8 7 6 7 4 5 5 4 4 3 4
5 7 14 19 22 22 22 22 22 23 21 20 19 17 17 16 17 17 16 12 12 12 13 14 15 14 13 12 11 11 10 10 9 8 8 7 6 6 4 5 4 4 3
11 15 15 19 20 21 22 22 21 22 22 21 20 19 19 19 17 17 16 15 13 12 13 13 14 14 13 12 13 12 12 10 9 8 8 8 8 7 7 5 6 5 4
12 17 19 20 20 20 21 20 20 22 22 22 22 22 19 17 17 17 17 14 13 13 13 12 11 11 12 11 13 13 11 12 8 7 7 8 9 12 11 5 6 5 4
16 19 22 22 21 23 23 22 21 22 22 21 23 21 19 18 18 17 16 15 12 12 11 12 12 12 10 15 16 15 12 10 11 9 7 7 10 13 13 12 11 9 6
14 14 22 23 21 21 21 22 23 21 22 22 20 20 19 18 18 17 16 15 15 11 12 12 12 12 13 14 16 12 9 8 8 9 8 7 6 7 6 7 5 7 9
7 22 16 17 21 21 21 22 20 21 22 22 20 19 19 19 17 16 17 14 13 13 13 13 13 10 9 11 17 16 8 8 9 9 9 8 7 7 6 5 6 6 5
9 8 11 12 9 18 20 19 19 21 20 21 21 20 20 18 17 18 17 14 13 13 13 13 14 14 17 10 13 12 8 10 8 6 6 7 6 6 7 5 5 5 5
6 11 10 9 16 17 20 23 22 22 23 23 23 22 19 18 17 18 17 13 14 14 11 12 10 11 12 15 14 13 6 7 4 4 4 7 7 10 11 7 6 6 4
7 7 7 11 15 17 16 19 20 23 26 25 22 17 19 19 17 14 13 14 13 11 11 9 6 10 11 13 16 13 7 6 5 4 4 4 8 8 8 6 4 4 3
6 6 5 9 12 12 19 21 22 25 23 17 16 15 16 14 13 17 14 14 12 12 12 12 7 5 6 9 12 15 10 8 6 4 4 2 1 8 9 7 7 10 7
9 11 9 6 4 7 16 21 25 18 14 14 15 14 14 14 16 17 15 11 11 11 9 8 8 6 5 4 13 15 10 9 5 4 6 9 8 8 6 7 10 7 3
15 16 18 15 7 5 6 12 14 18 19 17 15 15 15 15 13 10 11 11 10 10 9 9 8 7 6 4 4 4 5 6 5 6 6 5 5 4 3 3 4 4 4
11 10 10 12 18 21 9 10 12 14 17 19 14 13 12 13 11 9 4 6 2 9 11 9 9 10 8 6 10 10 7 7 6 7 4 2 2 3 3 2 3 3 4
9 10 10 12 13 17 28 12 17 21 19 15 14 12 11 9 9 10 8 17 10 3 10 15 11 3 6 14 15 14 13 14 17 4 4 4 4 4 4 4 4 3 5
Wind_Direction
179 191 185 186 175 180 180 183 180 185 177 169 173 175 193 196 192 187 198 175 183 187 177 172 181 175 172 185 181 134 178 337 25 60 1 356 80 76 97 89 84 75 90
194 180 180 176 176 179 183 181 185 182 184 180 186 177 173 204 189 179 213 188 182 183 179 175 185 189 169 175 163 145 139 280 162 139 97 45 2 49 73 7 120 129 119
193 190 189 181 179 178 181 182 182 183 183 178 165 116 86 38 170 206 189 203 191 184 169 185 180 192 170 168 175 157 161 171 252 178 143 100 200 223 53 201 190 147 135
199 190 190 191 185 187 183 181 176 179 181 174 176 188 189 193 214 193 180 190 199 185 177 176 183 171 160 163 183 163 162 129 184 360 46 35 139 154 96 336 280 290 168
195 198 195 196 194 185 184 185 179 173 175 180 182 185 192 202 188 169 193 202 187 179 176 178 176 171 162 168 171 164 169 144 124 146 166 44 46 67 126 187 281 321 262
198 202 200 196 198 192 188 185 182 182 173 178 183 187 195 195 194 176 185 194 188 184 187 182 181 172 164 169 179 176 166 149 153 133 164 163 164 190 138 123 198 221 277
193 200 199 199 197 195 190 184 184 187 182 181 184 189 195 198 200 182 185 187 179 182 192 178 182 172 174 173 163 164 171 169 172 172 180 178 184 142 134 117 178 173 298
199 196 199 198 199 193 186 182 183 186 186 189 194 195 196 201 199 184 181 196 191 189 187 185 177 175 166 171 170 169 173 173 186 189 191 171 185 161 161 163 145 60 337
199 201 198 198 196 191 188 182 182 188 188 191 195 198 198 201 195 178 189 191 191 190 184 180 176 179 177 178 169 170 176 176 192 208 198 191 195 189 192 196 155 150 178
200 200 200 195 193 193 186 182 183 185 189 191 194 195 200 197 191 180 190 187 189 190 176 178 182 182 183 179 173 172 182 177 196 206 205 213 205 199 226 194 166 187 153
194 201 200 194 192 188 181 184 183 186 189 193 198 193 197 195 188 196 196 193 189 192 185 183 187 187 183 182 182 177 179 181 197 205 206 231 218 204 219 229 123 195 157
185 192 196 186 186 187 181 186 183 187 191 192 195 199 192 188 197 206 207 191 194 192 189 185 188 189 189 184 187 182 191 184 194 206 205 219 222 233 202 193 194 177 181
210 237 185 183 186 186 185 185 186 188 189 190 192 196 195 191 198 203 207 199 196 189 186 186 191 189 189 188 193 188 186 194 195 196 200 213 206 237 222 200 203 202 178
197 193 193 188 185 185 184 188 190 188 187 189 192 197 197 195 198 201 205 205 195 186 191 190 189 192 187 190 193 190 192 193 195 194 202 204 204 206 220 208 210 202 184
194 188 189 188 181 184 188 191 190 187 189 190 191 198 199 196 196 200 203 201 199 193 187 184 191 189 186 193 197 196 196 196 187 194 204 209 213 204 211 188 209 214 213
201 183 186 186 179 185 187 190 189 190 188 194 201 194 194 194 197 198 199 197 189 187 172 181 183 180 195 196 188 189 193 204 192 202 211 218 216 222 210 203 211 198 202
170 186 187 187 191 186 186 190 191 184 191 198 198 199 195 195 196 194 192 194 191 164 169 173 179 191 205 203 188 193 188 185 196 203 203 212 210 196 212 214 256 257 243
250 176 190 197 188 189 187 192 189 188 192 197 197 197 197 196 192 189 192 184 183 170 172 178 182 193 231 191 184 183 173 195 206 210 200 206 187 193 207 202 224 246 256
202 181 180 176 196 186 189 188 187 194 193 197 199 198 198 193 187 190 187 178 174 176 180 181 170 179 181 194 160 169 188 208 209 204 195 197 200 205 225 205 227 235 245
195 196 205 168 172 203 197 180 188 190 197 201 201 197 190 190 188 188 182 176 172 173 171 181 196 187 161 166 167 192 190 199 183 178 198 205 197 196 191 193 213 245 259
234 244 191 187 196 187 181 192 193 197 203 201 201 187 186 186 186 171 166 161 165 165 169 173 162 156 152 178 197 177 174 168 173 176 188 201 215 209 197 193 187 238 162
304 279 233 212 219 197 179 192 194 202 202 195 185 183 181 174 162 158 153 162 165 163 156 141 145 168 181 176 191 186 180 155 163 177 185 173 216 182 168 167 199 177 157
354 350 308 255 321 206 203 192 204 189 172 169 175 172 164 156 155 152 153 156 154 147 138 145 144 161 156 174 175 190 155 152 138 150 153 143 135 145 171 175 174 156 128
26 19 18 350 301 170 194 228 185 165 157 157 153 150 148 147 145 144 152 150 145 142 150 147 156 153 150 156 152 132 125 113 97 126 113 130 145 143 144 140 177 181 181
23 23 16 358 351 325 130 137 145 145 142 135 137 138 134 133 116 75 90 135 96 152 153 159 152 154 165 183 164 155 161 172 157 117 99 102 126 181 188 213 213 201 205
42 24 1 343 3 331 326 142 140 134 133 130 134 133 118 114 106 95 56 33 52 92 139 136 139 102 145 152 155 156 149 142 144 110 144 175 189 198 208 209 220 213 213